Stündliche Wetter Cauquenes

Heute, 26 Januar, Dienstag

Zeit Temperatur Niederschläge Wind Luftdruck Luftfeuchtigkeit
00:00 +13°C° 0 mm 2 m/S 745 mmHg 58%
01:00 +12°C° 0 mm 2 m/S 745 mmHg 63%
02:00 +10°C° 0 mm 2 m/S 745 mmHg 69%
03:00 +9°C° 0 mm 2 m/S 745 mmHg 75%
04:00 +9°C° 0 mm 1 m/S 745 mmHg 81%
05:00 +11°C° 0 mm 1 m/S 746 mmHg 73%
06:00 +13°C° 0 mm 1 m/S 746 mmHg 65%
07:00 +15°C° 0 mm 2 m/S 747 mmHg 57%
08:00 +19°C° 0 mm 2 m/S 747 mmHg 47%
09:00 +23°C° 0 mm 2 m/S 747 mmHg 37%
10:00 +26°C° 0 mm 3 m/S 747 mmHg 27%
11:00 +28°C° 0 mm 3 m/S 747 mmHg 23%
12:00 +30°C° 0 mm 2 m/S 747 mmHg 20%
13:00 +32°C° 0 mm 2 m/S 747 mmHg 17%
14:00 +31°C° 0 mm 3 m/S 747 mmHg 19%
15:00 +30°C° 0 mm 4 m/S 746 mmHg 21%
16:00 +29°C° 0 mm 5 m/S 746 mmHg 23%
17:00 +26°C° 0 mm 4 m/S 747 mmHg 30%
18:00 +21°C° 0 mm 3 m/S 747 mmHg 37%
19:00 +18°C° 0 mm 2 m/S 747 mmHg 45%
20:00 +16°C° 0 mm 2 m/S 747 mmHg 52%
21:00 +14°C° 0 mm 1 m/S 747 mmHg 60%
22:00 +12°C° 0 mm 1 m/S 747 mmHg 67%
23:00 +12°C° 0 mm 1 m/S 747 mmHg 66%

Morgen, 27 Januar, Mittwoch

Zeit Temperatur Niederschläge Wind Luftdruck Luftfeuchtigkeit
00:00 +12°C° 0 mm 1 m/S 747 mmHg 64%
01:00 +12°C° 0 mm 1 m/S 747 mmHg 62%
02:00 +11°C° 0 mm 1 m/S 747 mmHg 67%
03:00 +10°C° 0 mm 1 m/S 747 mmHg 72%
04:00 +10°C° 0 mm 1 m/S 746 mmHg 77%
05:00 +12°C° 0 mm 1 m/S 747 mmHg 70%
06:00 +13°C° 0 mm 2 m/S 747 mmHg 63%
07:00 +15°C° 0 mm 2 m/S 747 mmHg 56%
08:00 +19°C° 0 mm 2 m/S 747 mmHg 47%
09:00 +22°C° 0 mm 3 m/S 747 mmHg 38%
10:00 +26°C° 0 mm 3 m/S 747 mmHg 29%
11:00 +27°C° 0 mm 4 m/S 747 mmHg 26%
12:00 +29°C° 0 mm 4 m/S 747 mmHg 23%
13:00 +30°C° 0 mm 4 m/S 747 mmHg 21%
14:00 +29°C° 0 mm 5 m/S 746 mmHg 23%
15:00 +28°C° 0 mm 6 m/S 746 mmHg 25%
16:00 +27°C° 0 mm 7 m/S 746 mmHg 27%
17:00 +23°C° 0 mm 6 m/S 746 mmHg 37%
18:00 +20°C° 0 mm 5 m/S 746 mmHg 47%
19:00 +17°C° 0 mm 4 m/S 747 mmHg 57%
20:00 +14°C° 0 mm 3 m/S 747 mmHg 65%
21:00 +13°C° 0 mm 3 m/S 747 mmHg 72%
22:00 +12°C° 0 mm 2 m/S 747 mmHg 80%
23:00 +12°C° 0 mm 2 m/S 746 mmHg 77%

übermorgen, 28 Januar, Donnerstag

Zeit Temperatur Niederschläge Wind Luftdruck Luftfeuchtigkeit
00:00 +12°C° 0 mm 2 m/S 746 mmHg 74%
01:00 +12°C° 0 mm 2 m/S 746 mmHg 72%
02:00 +12°C° 0 mm 2 m/S 746 mmHg 74%
03:00 +10°C° 0 mm 2 m/S 746 mmHg 76%
04:00 +11°C° 0 mm 1 m/S 745 mmHg 78%
05:00 +13°C° 0 mm 1 m/S 745 mmHg 70%
06:00 +15°C° 0 mm 1 m/S 746 mmHg 62%
07:00 +18°C° 0 mm 1 m/S 746 mmHg 54%
08:00 +19°C° 0 mm 2 m/S 746 mmHg 48%
09:00 +23°C° 0 mm 2 m/S 746 mmHg 43%
10:00 +26°C° 0 mm 3 m/S 746 mmHg 38%
11:00 +27°C° 0 mm 4 m/S 746 mmHg 37%
12:00 +28°C° 0 mm 5 m/S 745 mmHg 36%
13:00 +28°C° 0 mm 6 m/S 745 mmHg 35%
14:00 +27°C° 0 mm 6 m/S 745 mmHg 39%
15:00 +26°C° 0 mm 6 m/S 745 mmHg 42%
16:00 +24°C° 0 mm 6 m/S 745 mmHg 46%
17:00 +22°C° 0 mm 5 m/S 745 mmHg 54%
18:00 +20°C° 0 mm 4 m/S 745 mmHg 62%
19:00 +18°C° 0 mm 3 m/S 745 mmHg 71%
20:00 +17°C° 0.1 mm 2 m/S 745 mmHg 75%
21:00 +18°C° 0.1 mm 1 m/S 746 mmHg 79%
22:00 +15°C° 0.1 mm 0 m/S 746 mmHg 82%
23:00 +15°C° 0.1 mm 0 m/S 746 mmHg 85%

29 Januar, Freitag

Zeit Temperatur Niederschläge Wind Luftdruck Luftfeuchtigkeit
00:00 +14°C° 0.1 mm 0 m/S 745 mmHg 88%
01:00 +14°C° 0.1 mm 0 m/S 745 mmHg 90%
02:00 +15°C° 0 mm 1 m/S 745 mmHg 90%
03:00 +16°C° 0 mm 1 m/S 744 mmHg 89%
04:00 +16°C° 0 mm 1 m/S 744 mmHg 89%
05:00 +16°C° 0 mm 1 m/S 744 mmHg 88%
06:00 +18°C° 0 mm 1 m/S 744 mmHg 88%
07:00 +18°C° 0 mm 1 m/S 744 mmHg 87%
08:00 +18°C° 0.3 mm 2 m/S 744 mmHg 86%
09:00 +18°C° 0.3 mm 2 m/S 744 mmHg 86%
10:00 +18°C° 0.3 mm 2 m/S 744 mmHg 85%
11:00 +18°C° 1.5 mm 2 m/S 744 mmHg 85%
12:00 +18°C° 1.5 mm 3 m/S 744 mmHg 86%
13:00 +18°C° 1.5 mm 3 m/S 744 mmHg 86%
14:00 +17°C° 3.6 mm 4 m/S 744 mmHg 88%
15:00 +17°C° 3.6 mm 4 m/S 744 mmHg 89%
16:00 +15°C° 3.6 mm 5 m/S 744 mmHg 91%
17:00 +15°C° 0.9 mm 4 m/S 744 mmHg 91%
18:00 +15°C° 0.9 mm 4 m/S 744 mmHg 91%
19:00 +16°C° 0.9 mm 3 m/S 744 mmHg 91%
20:00 +16°C° 0 mm 3 m/S 744 mmHg 92%
21:00 +16°C° 0 mm 3 m/S 744 mmHg 93%
22:00 +16°C° 0 mm 3 m/S 745 mmHg 93%
23:00 +16°C° 0 mm 3 m/S 744 mmHg 93%

30 Januar, Samstag

Zeit Temperatur Niederschläge Wind Luftdruck Luftfeuchtigkeit
00:00 +16°C° 0 mm 2 m/S 744 mmHg 94%
01:00 +16°C° 0 mm 2 m/S 744 mmHg 94%
02:00 +16°C° 0.1 mm 2 m/S 744 mmHg 94%
03:00 +16°C° 0.1 mm 2 m/S 744 mmHg 94%
04:00 +16°C° 0.1 mm 2 m/S 743 mmHg 93%
05:00 +16°C° 0.5 mm 2 m/S 744 mmHg 92%
06:00 +17°C° 0.5 mm 2 m/S 744 mmHg 90%
07:00 +17°C° 0.5 mm 2 m/S 744 mmHg 89%
08:00 +18°C° 0.2 mm 3 m/S 745 mmHg 86%
09:00 +19°C° 0.2 mm 3 m/S 745 mmHg 82%
10:00 +20°C° 0.2 mm 4 m/S 745 mmHg 79%
11:00 +21°C° 0.4 mm 4 m/S 745 mmHg 75%
12:00 +22°C° 0.4 mm 4 m/S 745 mmHg 70%
13:00 +23°C° 0.4 mm 4 m/S 745 mmHg 66%
14:00 +22°C° 1.1 mm 4 m/S 745 mmHg 70%
15:00 +21°C° 1.1 mm 4 m/S 745 mmHg 73%
16:00 +20°C° 1.1 mm 4 m/S 745 mmHg 77%
17:00 +19°C° 0.7 mm 3 m/S 745 mmHg 81%
18:00 +18°C° 0.7 mm 2 m/S 745 mmHg 85%
19:00 +18°C° 0.7 mm 2 m/S 745 mmHg 89%
20:00 +18°C° 1.1 mm 1 m/S 746 mmHg 90%
21:00 +18°C° 1.1 mm 1 m/S 746 mmHg 92%
22:00 +16°C° 1.1 mm 0 m/S 747 mmHg 93%
23:00 +16°C° 0.6 mm 0 m/S 747 mmHg 94%

31 Januar, Sonntag

Zeit Temperatur Niederschläge Wind Luftdruck Luftfeuchtigkeit
00:00 +15°C° 0.6 mm 0 m/S 746 mmHg 94%
01:00 +15°C° 0.6 mm 0 m/S 746 mmHg 95%
02:00 +15°C° 0.2 mm 0 m/S 746 mmHg 95%
03:00 +15°C° 0.2 mm 0 m/S 746 mmHg 95%
04:00 +15°C° 0.2 mm 0 m/S 746 mmHg 95%
05:00 +15°C° 0.2 mm 0 m/S 747 mmHg 93%
06:00 +18°C° 0.2 mm 1 m/S 747 mmHg 92%
07:00 +18°C° 0.2 mm 1 m/S 747 mmHg 90%
08:00 +19°C° 1 mm 1 m/S 747 mmHg 85%
09:00 +20°C° 1 mm 1 m/S 747 mmHg 80%
10:00 +21°C° 1 mm 1 m/S 747 mmHg 74%
11:00 +21°C° 1.6 mm 2 m/S 747 mmHg 70%
12:00 +22°C° 1.6 mm 3 m/S 747 mmHg 65%
13:00 +23°C° 1.6 mm 4 m/S 747 mmHg 61%
14:00 +23°C° 0.3 mm 4 m/S 747 mmHg 61%
15:00 +22°C° 0.3 mm 4 m/S 747 mmHg 62%
16:00 +22°C° 0.3 mm 4 m/S 747 mmHg 62%
17:00 +20°C° 0 mm 3 m/S 747 mmHg 70%
18:00 +18°C° 0 mm 3 m/S 748 mmHg 77%
19:00 +17°C° 0 mm 2 m/S 748 mmHg 84%
20:00 +16°C° 0 mm 1 m/S 748 mmHg 87%
21:00 +15°C° 0 mm 1 m/S 749 mmHg 89%
22:00 +15°C° 0 mm 1 m/S 749 mmHg 92%
23:00 +14°C° 0 mm 1 m/S 748 mmHg 92%
Mehr zeigen

Wir brauchen deine Erlaubnis

Meteoprog und unser Service Anbieter werden persönliche Daten aufbewahren, so wie Cookies, Geräte Bezeichnung oder ähnliche Technologien von deinem Gerät und Prozess, so wie Persönliche Daten Inhalte und Werbungen, genauso wie social Media und den Verkehr zu analysieren.

  • Aufbewahrung und/oder Zugang zu deiner Geräte Informationen.

    Cookies, Geräte Bezeichnung oder andere Informationen, können aufbewahrt oder Zugang zu deinem Gerät erhalten, für den Grund, der oben angegeben wird.

  • Personalisierte Werbung und Inhalte, Messungen, Einblick in das Publikum und Produkt Entwicklung.

    Werbungen und Inhalte können personalisiert werden, basierend auf ein Profil. Mehr Daten können besser personalisierte Werbungen und Inhalte hinzufügen. Werbung und Inhalte können gezeigt und gemessen werden. Einblicke über das Publikum, welche die Werbung gesehen haben und den Inhalt, können abgeleitet werden. So wie Daten können genutzt werden, um es zu verbessern oder die Benutzer Erfahrung zu verbessern das System und die Software.

Wenn du “Ich stimme zu” klickst, erlaubst du uns, die Cookies zu benutzen die Geräte Bezeichnung, den Web oder ähnliche Technologien zu benutzen. Deine Settings, können in deinem Gerät bei deinem Browser geändert werden.

Für den bestimmten Zweck, berechtigten Interessen beruhen darauf, mehr als auf den Inhalt. Du kannst mehr darüber in unseren Privaten und Cookie Politik lesen.